Theta_e
345 343 342 343 344 342 342 340 342 341 338 338 339 339 338 338 337 337 337 334 332 331 333 333 332 332 332 332 331 332 332 330 328 327 326 325 324 324 323 322 321 320 319
341 344 342 343 344 344 341 341 339 338 339 338 337 337 337 338 337 337 336 335 334 330 331 333 331 331 332 329 326 329 331 330 328 327 325 325 323 323 323 321 320 319 318
343 343 343 340 340 344 341 338 341 340 338 340 339 337 337 337 337 337 335 335 335 330 328 330 331 331 329 326 325 325 327 330 328 327 325 324 323 322 322 321 320 318 318
341 344 342 342 342 339 342 339 338 339 339 340 339 339 338 337 335 335 335 334 334 331 329 329 328 327 326 325 324 324 328 330 328 327 325 324 323 322 321 320 319 317 318
346 342 344 340 340 342 341 342 339 339 340 339 339 338 337 335 335 335 334 334 334 333 330 327 326 326 326 325 324 325 326 330 329 327 326 324 322 321 320 319 318 317 317
340 343 343 344 340 341 342 341 341 341 340 338 339 338 336 335 334 335 334 334 333 332 329 326 325 325 325 325 326 327 328 330 329 327 324 322 321 319 319 318 317 317 316
343 342 343 344 342 340 339 340 341 340 340 339 338 336 335 335 334 334 333 333 332 332 330 327 326 325 325 326 327 326 327 330 329 326 324 322 320 318 318 316 317 316 316
342 342 343 343 343 340 338 339 341 340 339 338 338 335 334 334 334 333 332 332 331 331 330 328 326 325 325 325 326 326 326 329 330 328 325 322 319 318 317 317 316 316 316
341 341 342 342 342 340 338 337 340 339 337 336 337 332 331 331 330 332 334 331 332 331 331 330 327 325 324 324 325 325 324 326 330 328 325 323 319 317 317 316 316 316 315
332 339 338 341 341 340 338 336 337 338 336 335 336 334 331 331 329 331 332 332 331 331 330 330 329 327 325 324 323 324 323 327 328 328 325 323 319 317 317 316 316 315 315
328 334 338 340 340 340 339 336 335 337 335 334 334 334 333 332 332 330 330 330 332 332 331 330 330 329 327 325 324 324 324 324 326 328 326 324 319 317 316 316 315 315 315
325 333 337 337 339 338 338 337 336 336 335 335 333 333 333 332 331 329 328 328 329 330 330 330 329 329 328 328 327 325 324 325 326 326 326 324 321 318 317 316 315 315 315
319 327 334 334 337 337 336 337 338 336 335 334 334 332 332 332 331 329 330 328 327 330 330 330 329 329 329 329 328 327 326 325 326 326 326 325 322 319 318 317 316 315 315
316 320 331 333 335 335 334 334 335 337 336 335 334 333 332 330 331 329 328 329 328 327 328 327 328 328 328 328 328 328 327 327 326 326 326 326 323 320 318 317 317 316 315
310 315 321 331 335 336 334 334 336 336 336 335 335 334 333 332 331 330 330 330 329 327 325 328 327 326 326 326 326 325 326 326 326 326 325 325 323 320 318 318 317 316 316
307 313 318 329 335 335 335 335 335 334 334 335 333 329 332 331 328 331 331 329 328 327 324 326 326 327 326 325 324 324 323 324 325 325 324 324 323 319 319 319 318 317 316
309 311 318 327 333 334 335 335 335 334 334 334 334 332 331 322 327 330 329 328 328 327 325 326 326 326 327 326 324 322 324 323 324 324 323 321 320 318 319 319 318 318 317
319 316 321 329 332 333 333 334 334 334 334 333 333 333 331 329 330 329 329 329 328 328 327 325 326 326 326 326 325 323 324 322 323 323 321 320 318 316 318 319 319 318 317
314 322 329 330 331 332 331 334 334 334 335 334 333 332 331 330 330 329 328 328 328 328 327 327 326 326 325 325 325 323 322 322 321 322 321 320 318 316 316 318 318 318 317
301 312 322 327 329 331 332 332 333 333 333 332 331 330 330 329 329 328 326 325 325 325 326 326 325 324 324 324 324 322 318 318 319 319 320 319 319 317 316 317 317 317 317
293 295 304 308 316 322 323 331 331 332 332 328 328 327 324 324 324 324 322 318 318 316 317 321 321 322 323 322 321 316 312 309 307 309 315 316 318 317 317 317 317 316 316
288 290 293 293 295 297 312 329 330 330 322 323 317 311 309 313 313 314 313 316 314 310 307 309 318 320 321 321 320 316 307 300 298 300 304 300 302 307 308 306 308 311 313
287 286 287 289 290 291 296 310 311 311 308 305 305 304 303 303 307 306 304 306 302 300 299 299 300 302 304 315 313 311 307 306 299 297 299 290 293 292 294 294 295 300 298
284 284 285 286 287 289 291 291 291 294 293 293 295 294 297 297 299 302 301 297 294 293 292 293 292 291 293 301 307 309 307 299 295 294 296 289 289 288 290 291 292 291 292
284 284 283 283 284 285 291 293 290 286 287 286 287 289 290 291 291 294 296 290 288 287 288 289 289 290 294 298 302 306 300 296 292 292 292 288 287 285 286 286 287 288 289
285 284 284 284 283 283 284 287 289 287 284 284 284 285 285 286 287 288 289 289 284 283 287 289 290 291 292 294 297 299 297 298 291 290 291 287 285 286 283 284 284 284 284
Wind_Speed
22 23 23 21 25 24 23 21 21 18 18 18 19 16 16 17 16 14 9 8 9 9 11 12 13 15 19 20 27 30 31 31 29 27 26 24 22 20 19 18 16 15 15
25 24 25 25 24 27 26 23 21 22 19 18 20 20 18 15 15 15 11 9 8 10 12 14 12 17 21 18 19 20 31 32 29 28 26 24 22 21 20 19 17 14 14
27 26 25 27 24 25 27 26 22 18 20 20 19 18 18 16 15 14 12 12 12 13 13 16 20 20 18 17 21 22 40 33 30 28 26 24 23 22 21 21 19 15 16
33 24 31 24 21 24 28 27 28 24 21 19 17 17 16 16 16 16 16 14 12 11 15 15 17 18 18 21 17 24 33 34 32 29 27 26 24 23 23 22 21 17 18
30 32 27 34 31 19 20 24 28 26 24 21 17 17 17 16 16 17 17 16 16 17 17 17 19 19 18 25 27 21 38 35 33 30 28 28 26 25 23 22 22 20 20
35 31 30 31 30 29 24 20 26 25 23 24 20 20 19 16 15 16 18 19 20 20 19 19 18 17 17 20 21 18 39 34 32 30 30 28 27 26 24 24 22 24 23
32 36 33 30 33 35 33 30 22 26 21 20 17 14 10 13 18 19 19 19 19 21 19 19 18 14 12 15 20 27 25 27 30 29 29 27 26 26 25 24 25 25 24
34 36 35 30 30 30 32 30 25 22 21 23 9 12 3 8 20 21 21 22 23 23 22 18 19 17 14 17 23 28 26 32 31 31 27 26 26 26 27 27 26 26 25
32 36 35 35 31 30 29 33 32 27 22 26 24 7 3 4 4 15 25 23 23 24 24 20 19 19 17 15 18 27 26 27 31 31 29 27 27 23 29 28 26 26 25
41 35 38 36 35 30 31 33 33 34 27 23 27 28 13 7 3 2 17 25 25 25 24 21 22 20 19 20 17 19 21 23 29 31 31 29 28 26 29 29 28 28 27
28 39 39 36 35 32 33 34 34 34 35 30 29 24 25 20 14 2 3 8 22 24 26 25 25 23 22 23 25 21 19 29 31 32 34 32 29 29 29 31 30 29 28
31 29 41 41 39 39 35 34 35 35 37 33 29 27 23 17 13 6 3 4 10 19 24 26 25 24 24 25 23 27 26 29 34 35 38 37 33 32 31 31 30 30 29
33 34 33 41 41 39 38 36 36 36 38 35 32 31 24 23 18 19 14 7 4 7 11 18 23 25 23 26 25 25 25 32 37 40 42 41 37 35 33 34 32 31 29
35 34 31 38 38 37 42 37 36 35 37 37 34 31 29 27 26 24 22 14 3 3 5 8 22 21 22 26 27 27 30 31 34 41 43 44 39 36 35 35 34 31 29
39 39 38 32 35 37 42 40 39 37 33 37 31 32 27 29 30 30 24 22 9 4 5 14 10 22 26 24 25 27 30 33 35 42 44 44 41 37 36 37 35 32 29
40 40 40 34 37 36 38 39 38 38 36 31 35 29 32 26 22 30 22 16 16 10 4 16 18 17 21 23 26 26 28 28 35 39 42 43 42 38 36 36 35 33 32
44 42 41 38 38 36 37 36 36 34 36 33 31 32 29 18 29 23 19 21 23 23 8 10 15 14 20 21 20 23 26 27 32 38 44 42 42 39 37 35 34 34 34
32 40 39 39 40 41 38 37 36 32 34 33 27 28 30 38 32 26 24 26 23 20 16 8 15 19 18 20 22 22 26 27 31 38 45 41 39 38 38 38 35 34 34
22 16 32 35 37 36 35 34 36 33 33 32 33 33 30 31 28 25 25 22 21 17 17 13 9 16 16 17 24 24 23 28 31 34 38 38 40 38 38 37 36 36 35
20 14 15 30 35 34 30 33 30 29 29 30 29 28 26 26 25 22 16 11 8 5 7 11 11 11 14 18 23 27 23 26 30 29 35 33 36 38 38 38 36 36 35
31 22 23 21 9 7 12 24 30 28 29 24 25 25 23 22 21 19 14 8 4 5 5 9 13 11 13 9 13 17 19 27 21 20 26 26 32 33 33 37 40 39 37
43 40 43 36 33 28 7 25 29 24 30 34 29 25 21 18 15 12 10 3 3 3 6 8 10 13 19 21 22 25 21 10 3 19 23 17 19 24 24 24 26 27 31
43 41 41 40 40 40 33 25 26 31 29 25 27 23 19 16 13 12 14 10 9 8 4 3 6 7 8 8 13 24 24 19 12 23 23 15 18 23 23 21 24 28 32
42 35 42 42 43 42 40 39 35 32 33 29 24 17 19 17 14 14 15 15 14 13 10 8 5 2 7 16 13 19 22 17 18 23 17 7 17 25 25 25 22 22 27
41 43 42 46 47 45 42 38 41 30 46 41 35 24 19 19 13 17 20 20 19 16 13 12 11 7 2 9 8 18 25 25 6 9 6 11 15 24 24 22 23 22 24
37 37 43 49 47 45 45 41 46 30 37 36 40 36 31 25 18 16 19 21 24 16 15 13 14 14 14 13 8 11 17 14 13 5 16 10 23 14 7 17 20 20 20
Wind_Direction
209 212 215 212 211 212 211 213 224 224 233 231 233 240 235 239 249 252 246 233 216 213 213 213 219 224 227 220 239 220 195 188 189 187 187 186 186 190 189 186 184 182 190
211 212 211 219 212 209 211 209 217 227 229 232 235 236 241 246 246 244 241 252 232 219 213 212 225 228 231 217 244 244 209 195 193 191 191 190 191 193 193 188 182 182 183
218 215 213 218 221 212 207 209 210 218 227 225 227 229 233 237 239 242 234 241 249 218 218 211 216 230 230 245 244 246 229 196 196 195 193 195 195 196 195 188 184 190 182
219 226 214 214 212 223 210 205 210 214 225 220 216 228 223 232 236 236 231 227 242 221 209 209 226 233 245 251 242 243 226 205 198 198 198 199 198 201 198 194 195 190 185
221 217 218 223 218 227 207 210 208 209 216 209 217 223 226 229 229 234 229 220 228 230 227 227 233 243 258 254 236 243 217 209 205 204 204 206 204 206 204 202 193 191 188
218 220 218 219 217 224 222 222 205 201 213 207 212 214 214 221 230 225 224 225 223 239 239 235 240 247 257 241 245 215 204 202 206 208 209 209 208 207 203 194 195 193 191
221 218 222 222 214 212 222 227 217 207 206 201 211 211 204 221 223 224 231 225 222 227 228 235 240 233 244 239 228 209 209 208 206 204 206 208 210 206 199 201 195 195 195
227 218 217 216 205 204 211 220 220 197 200 206 195 148 194 230 234 235 229 227 225 218 232 236 236 229 222 235 223 217 225 220 201 199 206 207 207 207 200 200 199 198 197
235 226 220 216 217 212 209 214 212 203 196 206 209 164 175 211 140 219 219 220 224 220 225 228 238 226 218 207 202 213 229 229 210 203 208 209 209 213 203 203 202 203 202
240 237 229 220 215 210 213 215 215 208 203 199 205 215 215 153 173 156 216 217 219 220 223 223 229 227 220 217 214 210 215 221 215 206 211 214 210 210 206 206 207 207 206
283 232 222 224 214 212 219 214 214 208 208 204 203 202 218 233 227 172 163 193 209 220 230 228 225 224 227 223 222 215 224 220 217 216 213 215 214 210 205 211 212 211 209
286 265 224 218 220 218 225 213 215 211 211 207 207 204 204 198 206 190 211 173 184 207 221 223 221 223 228 230 229 226 222 217 220 218 215 216 215 212 207 213 216 214 213
282 272 252 227 216 214 219 221 211 211 211 210 200 200 205 209 213 207 214 210 189 172 198 215 218 219 223 227 233 233 226 228 222 217 215 217 215 215 211 212 216 216 215
273 277 275 234 225 209 219 226 225 212 208 211 206 194 194 202 212 207 208 208 208 188 158 183 214 216 222 227 233 232 233 223 224 215 215 217 216 215 216 213 216 217 220
268 270 272 249 225 213 218 215 218 222 207 203 206 201 197 194 203 212 208 209 182 189 201 192 184 218 223 225 230 232 233 228 221 219 214 216 216 218 218 216 216 217 219
262 260 258 255 228 214 214 209 215 218 208 207 207 214 208 208 248 206 201 201 206 204 203 198 215 222 225 226 232 231 230 232 228 222 215 216 216 220 221 218 218 220 221
260 250 249 249 225 217 211 210 213 210 212 209 204 202 217 225 226 211 197 211 210 211 213 221 227 231 224 228 229 222 223 233 224 220 213 216 216 221 219 218 220 224 224
254 240 239 239 221 213 212 208 209 210 213 210 197 194 194 195 209 203 201 213 221 216 213 208 227 239 230 229 235 231 218 229 230 223 216 218 216 219 222 219 220 224 226
290 271 242 234 220 215 214 206 204 201 200 197 191 191 192 197 196 200 204 207 215 218 221 224 227 241 233 237 220 229 224 220 215 225 214 216 215 218 223 223 222 224 227
7 345 264 237 221 211 202 202 203 199 194 195 195 192 187 192 189 186 181 165 171 209 232 232 231 239 246 246 222 205 197 204 202 206 208 212 215 220 223 224 226 229 228
28 35 63 58 70 167 187 198 200 199 188 165 162 168 166 169 171 173 173 174 205 255 280 268 255 241 220 196 212 188 187 191 184 185 187 203 209 217 224 231 236 230 231
32 35 43 43 39 32 353 195 199 181 151 157 142 137 138 137 133 132 133 199 299 294 267 260 268 242 239 230 220 202 180 162 155 187 166 160 178 186 197 205 205 212 227
44 34 39 43 42 39 54 93 108 125 118 117 132 144 136 130 125 116 101 100 80 69 60 264 266 285 300 235 220 189 192 187 177 173 161 94 141 130 143 147 158 174 166
43 39 41 43 44 43 52 68 63 91 88 89 101 108 117 122 129 135 118 106 89 73 63 62 66 6 297 276 241 216 193 153 138 151 145 104 132 121 129 129 140 143 147
44 45 45 44 44 37 61 68 67 43 72 63 63 65 80 93 108 124 126 115 97 84 80 79 77 69 333 290 231 196 162 141 115 157 153 122 135 112 118 128 131 138 147
47 45 47 46 45 42 48 60 75 58 61 64 60 56 60 71 83 98 114 112 93 84 88 83 73 65 61 71 132 167 170 168 125 124 171 119 152 134 105 128 134 139 132